Pittsburg, KS

11:33 AM CDT on April 28, 2017 (GMT -0500)
Atkinson Municipal

Weather History for KPTS - October, 2012

Change the Weather History Date:

Monday, October 22, 2012

  Actual Average (KJLN) Record (KJLN)
Temperature  
Mean Temperature 73 °F -  
Max Temperature 77 °F 68 °F 84 °F (1963)
Min Temperature 69 °F 47 °F 27 °F (1982)
Cooling Degree Days 8    
Growing Degree Days 23 (Base 50)    
Moisture  
Dew Point 67 °F    
Average Humidity 84    
Maximum Humidity 100    
Minimum Humidity 65    
Precipitation  
Precipitation 0.00 in - - ()
Sea Level Pressure  
Sea Level Pressure 29.85 in    
Wind  
Wind Speed 16 mph (SSW)    
Max Wind Speed 25 mph    
Max Gust Speed 34 mph    
Visibility 10 miles    
Events Rain , Thunderstorm    
Averages and records for this station are not official NWS values.
T = Trace of Precipitation, MM = Missing Value Source: NWS Daily Summary

Daily Weather History Graph

Daily Weather History Graph

Search for Another Location

Airport or City:

Trip Planner

Search our weather history database for the weather conditions in past years. The results will help you decide how hot, cold, wet, or windy it might be!

Date:

Astronomy

Oct. 22, 2012 Rise Set
Actual Time 7:34 AM CDT 6:31 PM CDT
Civil Twilight 7:07 AM CDT 6:58 PM CDT
Nautical Twilight 6:37 AM CDT 7:28 PM CDT
Astronomical Twilight 6:06 AM CDT 7:59 PM CDT
Moon 2:32 PM CDT (10/22) 12:30 AM CDT (10/22)
Length of Visible Light 11h 50m
Length of Day
10h 57m
First Quarter, 56% of the Moon is Illuminated
Oct 22
First Quarter
Oct 29
Full
Nov 6
Last Quarter
Nov 13
New
Nov 20
First Quarter

Hourly Weather History & Observations

Time (CDT) Temp. Dew Point Humidity Pressure Visibility Wind Dir Wind Speed Gust Speed Precip Events Conditions
12:15 AM 71.1 °F 66.9 °F 87% 29.82 in 10.0 mi South 12.7 mph 18.4 mph N/A   Clear
12:55 AM 71.6 °F 67.1 °F 86% 29.81 in 10.0 mi South 15.0 mph 21.9 mph N/A   Clear
1:35 AM 71.6 °F 66.9 °F 85% 29.81 in 10.0 mi South 16.1 mph 20.7 mph N/A   Clear
1:55 AM 71.6 °F 66.9 °F 85% 29.81 in 10.0 mi South 16.1 mph 21.9 mph N/A   Clear
2:15 AM 71.6 °F 67.1 °F 86% 29.81 in 10.0 mi SSW 15.0 mph 21.9 mph N/A   Clear
2:35 AM 71.6 °F 67.5 °F 87% 29.81 in 10.0 mi SSW 17.3 mph 25.3 mph N/A   Clear
2:55 AM 71.6 °F 67.5 °F 87% 29.81 in 10.0 mi SSW 15.0 mph - N/A   Clear
3:15 AM 71.6 °F 67.5 °F 87% 29.81 in 10.0 mi SSW 15.0 mph - N/A   Clear
3:55 AM 71.6 °F 67.1 °F 86% 29.80 in 10.0 mi SSW 17.3 mph 21.9 mph N/A   Clear
4:15 AM 71.6 °F 66.9 °F 85% 29.80 in 10.0 mi SSW 18.4 mph 25.3 mph N/A   Clear
4:35 AM 71.6 °F 66.7 °F 85% 29.80 in 10.0 mi SSW 16.1 mph 27.6 mph N/A   Clear
4:55 AM 71.6 °F 66.9 °F 85% 29.80 in 10.0 mi SSW 17.3 mph 26.5 mph N/A   Clear
5:15 AM 71.6 °F 67.5 °F 87% 29.80 in 10.0 mi SSW 19.6 mph 28.8 mph N/A   Clear
5:35 AM 71.6 °F 67.8 °F 88% 29.80 in 10.0 mi SSW 18.4 mph 29.9 mph N/A   Clear
5:55 AM 71.2 °F 67.8 °F 89% 29.81 in 10.0 mi SSW 16.1 mph 23.0 mph N/A   Clear
6:15 AM 70.9 °F 67.6 °F 89% 29.81 in 10.0 mi SSW 20.7 mph 29.9 mph N/A   Clear
6:35 AM 70.7 °F 67.8 °F 91% 29.82 in 10.0 mi SSW 16.1 mph 25.3 mph N/A   Clear
6:55 AM 70.3 °F 67.6 °F 91% 29.82 in 10.0 mi SSW 15.0 mph - N/A   Clear
7:15 AM 70.3 °F 67.8 °F 92% 29.82 in 10.0 mi SSW 16.1 mph - N/A   Clear
7:35 AM 70.3 °F 68.0 °F 92% 29.83 in 10.0 mi SSW 17.3 mph 23.0 mph N/A   Scattered Clouds
7:55 AM 70.3 °F 67.8 °F 92% 29.83 in 10.0 mi SSW 16.1 mph 21.9 mph N/A   Scattered Clouds
8:15 AM 70.9 °F 67.8 °F 90% 29.84 in 10.0 mi SSW 19.6 mph 27.6 mph N/A   Scattered Clouds
8:35 AM 71.6 °F 67.8 °F 88% 29.84 in 10.0 mi SSW 17.3 mph 24.2 mph N/A   Scattered Clouds
8:55 AM 73.4 °F 68.2 °F 84% 29.85 in 10.0 mi SSW 18.4 mph 29.9 mph N/A   Scattered Clouds
9:15 AM 74.3 °F 67.8 °F 80% 29.85 in 10.0 mi SSW 17.3 mph 27.6 mph N/A   Scattered Clouds
9:35 AM 74.3 °F 67.3 °F 79% 29.85 in 10.0 mi SSW 23.0 mph 29.9 mph N/A   Mostly Cloudy
9:55 AM 74.3 °F 66.6 °F 77% 29.86 in 10.0 mi SSW 19.6 mph 29.9 mph N/A   Scattered Clouds
10:15 AM 74.3 °F 65.5 °F 74% 29.86 in 10.0 mi SSW 19.6 mph 29.9 mph N/A   Scattered Clouds
10:35 AM 74.3 °F 64.9 °F 72% 29.86 in 10.0 mi SSW 25.3 mph 31.1 mph N/A   Mostly Cloudy
10:55 AM 74.3 °F 65.5 °F 74% 29.86 in 10.0 mi SSW 20.7 mph 31.1 mph N/A   Mostly Cloudy
11:15 AM 74.5 °F 65.5 °F 73% 29.87 in 10.0 mi SSW 23.0 mph 29.9 mph N/A   Scattered Clouds
11:35 AM 74.8 °F 64.9 °F 71% 29.87 in 10.0 mi SW 20.7 mph 29.9 mph N/A   Mostly Cloudy
11:55 AM 74.5 °F 65.1 °F 72% 29.88 in 10.0 mi SSW 21.9 mph 29.9 mph N/A   Mostly Cloudy
12:15 PM 74.3 °F 65.7 °F 74% 29.88 in 10.0 mi SW 19.6 mph 32.2 mph N/A   Mostly Cloudy
12:35 PM 74.3 °F 66.2 °F 76% 29.88 in 10.0 mi SSW 17.3 mph 29.9 mph N/A   Mostly Cloudy
12:55 PM 74.3 °F 66.4 °F 76% 29.87 in 10.0 mi SSW 18.4 mph 24.2 mph N/A   Mostly Cloudy
1:15 PM 74.3 °F 65.7 °F 74% 29.86 in 10.0 mi SW 19.6 mph 29.9 mph N/A   Mostly Cloudy
1:35 PM 75.7 °F 66.0 °F 72% 29.86 in 10.0 mi SW 18.4 mph 25.3 mph N/A   Mostly Cloudy
1:55 PM 76.6 °F 66.0 °F 70% 29.86 in 10.0 mi SSW 17.3 mph 25.3 mph N/A   Mostly Cloudy
2:15 PM 76.6 °F 65.5 °F 68% 29.86 in 10.0 mi SSW 24.2 mph 27.6 mph N/A   Mostly Cloudy
2:35 PM 77.4 °F 65.3 °F 66% 29.85 in 10.0 mi SW 24.2 mph 32.2 mph N/A   Mostly Cloudy
2:55 PM 77.5 °F 65.1 °F 65% 29.85 in 10.0 mi SW 19.6 mph 34.5 mph N/A   Scattered Clouds
3:15 PM 76.6 °F 64.8 °F 67% 29.86 in 10.0 mi SSW 19.6 mph 27.6 mph N/A   Mostly Cloudy
3:35 PM 76.6 °F 64.6 °F 66% 29.86 in 10.0 mi SW 25.3 mph 34.5 mph N/A   Scattered Clouds
3:55 PM 76.6 °F 64.9 °F 67% 29.86 in 10.0 mi SSW 19.6 mph 32.2 mph N/A   Scattered Clouds
4:15 PM 76.6 °F 65.8 °F 69% 29.86 in 10.0 mi SSW 21.9 mph 33.4 mph N/A   Scattered Clouds
4:35 PM 75.6 °F 65.7 °F 71% 29.85 in 10.0 mi SSW 15.0 mph 26.5 mph N/A   Clear
4:55 PM 74.3 °F 65.3 °F 73% 29.85 in 10.0 mi SSW 17.3 mph 28.8 mph N/A   Clear
5:15 PM 74.3 °F 65.5 °F 74% 29.86 in 10.0 mi SSW 13.8 mph 24.2 mph N/A   Clear
5:35 PM 74.3 °F 66.2 °F 76% 29.86 in 10.0 mi SSW 13.8 mph - N/A   Clear
5:55 PM 74.3 °F 67.1 °F 78% 29.87 in 10.0 mi SW 15.0 mph 19.6 mph N/A   Clear
6:15 PM 74.3 °F 67.8 °F 80% 29.86 in 10.0 mi SSW 12.7 mph - N/A   Clear
6:35 PM 74.3 °F 68.5 °F 82% 29.86 in 10.0 mi South 9.2 mph - N/A Thunderstorm Clear
6:55 PM 72.7 °F 70.2 °F 92% 29.87 in 10.0 mi South 15.0 mph - N/A Rain Light Rain
7:15 PM 71.6 °F 70.9 °F 98% 29.86 in 10.0 mi South 10.4 mph - N/A   Clear
7:35 PM 70.9 °F 70.3 °F 98% 29.86 in 10.0 mi South 8.1 mph - N/A Rain Light Rain
7:55 PM 70.0 °F 69.6 °F 99% 29.87 in 10.0 mi SSW 5.8 mph - N/A   Clear
8:15 PM 69.1 °F 69.3 °F 100% 29.86 in 10.0 mi South 5.8 mph - N/A   Clear
8:35 PM 69.1 °F 69.3 °F 100% 29.87 in 10.0 mi South 9.2 mph - N/A   Clear
8:55 PM 69.1 °F 69.3 °F 100% 29.88 in 10.0 mi South 8.1 mph - N/A   Clear
9:15 PM 69.1 °F 69.3 °F 100% 29.87 in 10.0 mi South 8.1 mph - N/A   Clear
9:35 PM 69.1 °F 69.3 °F 100% 29.88 in 10.0 mi South 8.1 mph - N/A   Clear
9:55 PM 69.1 °F 69.3 °F 100% 29.89 in 10.0 mi South 8.1 mph - N/A   Scattered Clouds
10:15 PM 69.1 °F 69.3 °F 100% 29.89 in 10.0 mi South 10.4 mph - N/A   Clear
10:35 PM 69.1 °F 69.3 °F 100% 29.89 in 10.0 mi South 11.5 mph - N/A   Clear
10:55 PM 69.1 °F 69.3 °F 100% 29.89 in 10.0 mi South 10.4 mph 16.1 mph N/A   Clear
11:15 PM 69.1 °F 69.3 °F 100% 29.89 in 10.0 mi SSW 11.5 mph 17.3 mph N/A   Scattered Clouds
11:35 PM 69.1 °F 69.3 °F 100% 29.89 in 10.0 mi South 12.7 mph - N/A   Scattered Clouds
11:55 PM 69.1 °F 69.3 °F 100% 29.88 in 10.0 mi South 9.2 mph - N/A   Clear